Tiempo cada hora Czystogarb

Hoy, 4 Agosto, Miércoles

Tiempo Temperatura Precipitaciones Viento Presión Humedad
00:00 +14°C° 0 mm 1 mps 714 mmHg 79%
01:00 +13°C° 0 mm 1 mps 714 mmHg 80%
02:00 +14°C° 0 mm 1 mps 714 mmHg 79%
03:00 +14°C° 0 mm 1 mps 714 mmHg 79%
04:00 +14°C° 0 mm 1 mps 714 mmHg 78%
05:00 +15°C° 0 mm 1 mps 714 mmHg 76%
06:00 +16°C° 0 mm 1 mps 714 mmHg 73%
07:00 +19°C° 0 mm 1 mps 714 mmHg 71%
08:00 +21°C° 0 mm 1 mps 715 mmHg 63%
09:00 +23°C° 0 mm 2 mps 715 mmHg 54%
10:00 +25°C° 0 mm 2 mps 715 mmHg 46%
11:00 +25°C° 0 mm 3 mps 714 mmHg 44%
12:00 +26°C° 0 mm 3 mps 714 mmHg 43%
13:00 +26°C° 0 mm 3 mps 714 mmHg 41%
14:00 +24°C° 0.1 mm 3 mps 714 mmHg 53%
15:00 +21°C° 0.1 mm 2 mps 714 mmHg 65%
16:00 +19°C° 0.1 mm 2 mps 714 mmHg 76%
17:00 +18°C° 0.1 mm 2 mps 713 mmHg 81%
18:00 +18°C° 0.1 mm 1 mps 713 mmHg 85%
19:00 +16°C° 0.1 mm 1 mps 713 mmHg 89%
20:00 +16°C° 0 mm 1 mps 713 mmHg 90%
21:00 +15°C° 0 mm 1 mps 713 mmHg 91%
22:00 +15°C° 0 mm 1 mps 713 mmHg 92%
23:00 +15°C° 0 mm 1 mps 713 mmHg 92%

Mañana, 5 Agosto, Jueves

Tiempo Temperatura Precipitaciones Viento Presión Humedad
00:00 +15°C° 0 mm 1 mps 712 mmHg 93%
01:00 +14°C° 0 mm 1 mps 712 mmHg 94%
02:00 +15°C° 0.1 mm 1 mps 712 mmHg 94%
03:00 +15°C° 0.1 mm 1 mps 712 mmHg 94%
04:00 +15°C° 0.1 mm 1 mps 711 mmHg 94%
05:00 +15°C° 0.1 mm 1 mps 711 mmHg 93%
06:00 +15°C° 0.1 mm 1 mps 711 mmHg 93%
07:00 +16°C° 0.1 mm 1 mps 711 mmHg 92%
08:00 +19°C° 0 mm 1 mps 711 mmHg 84%
09:00 +21°C° 0 mm 1 mps 711 mmHg 76%
10:00 +22°C° 0 mm 1 mps 711 mmHg 68%
11:00 +23°C° 0 mm 2 mps 710 mmHg 63%
12:00 +24°C° 0 mm 2 mps 710 mmHg 59%
13:00 +25°C° 0 mm 2 mps 710 mmHg 55%
14:00 +22°C° 0.4 mm 3 mps 709 mmHg 66%
15:00 +20°C° 0.4 mm 3 mps 708 mmHg 78%
16:00 +18°C° 0.4 mm 3 mps 708 mmHg 90%
17:00 +18°C° 0.8 mm 3 mps 707 mmHg 91%
18:00 +18°C° 0.8 mm 3 mps 706 mmHg 92%
19:00 +17°C° 0.8 mm 3 mps 706 mmHg 93%
20:00 +17°C° 0.8 mm 3 mps 706 mmHg 95%
21:00 +17°C° 0.8 mm 2 mps 705 mmHg 96%
22:00 +16°C° 0.8 mm 2 mps 705 mmHg 98%
23:00 +16°C° 0.2 mm 2 mps 705 mmHg 97%

Pasado mañana, 6 Agosto, Viernes

Tiempo Temperatura Precipitaciones Viento Presión Humedad
00:00 +16°C° 0.2 mm 3 mps 705 mmHg 97%
01:00 +14°C° 0.2 mm 3 mps 705 mmHg 97%
02:00 +14°C° 0 mm 3 mps 706 mmHg 97%
03:00 +15°C° 0 mm 2 mps 706 mmHg 97%
04:00 +15°C° 0 mm 2 mps 706 mmHg 97%
05:00 +15°C° 0 mm 1 mps 706 mmHg 96%
06:00 +15°C° 0 mm 1 mps 706 mmHg 95%
07:00 +16°C° 0 mm 1 mps 707 mmHg 94%
08:00 +16°C° 0.2 mm 1 mps 707 mmHg 94%
09:00 +16°C° 0.2 mm 1 mps 707 mmHg 93%
10:00 +16°C° 0.2 mm 1 mps 708 mmHg 93%
11:00 +16°C° 0.3 mm 2 mps 708 mmHg 93%
12:00 +16°C° 0.3 mm 2 mps 708 mmHg 94%
13:00 +16°C° 0.3 mm 2 mps 708 mmHg 95%
14:00 +16°C° 0.1 mm 2 mps 709 mmHg 95%
15:00 +15°C° 0.1 mm 2 mps 709 mmHg 95%
16:00 +15°C° 0.1 mm 2 mps 709 mmHg 95%
17:00 +15°C° 0 mm 2 mps 709 mmHg 95%
18:00 +15°C° 0 mm 2 mps 710 mmHg 95%
19:00 +14°C° 0 mm 2 mps 710 mmHg 96%
20:00 +14°C° 0 mm 1 mps 710 mmHg 96%
21:00 +13°C° 0 mm 1 mps 710 mmHg 96%
22:00 +13°C° 0 mm 1 mps 711 mmHg 97%
23:00 +13°C° 0 mm 1 mps 711 mmHg 96%

7 Agosto, Sábado

Tiempo Temperatura Precipitaciones Viento Presión Humedad
00:00 +11°C° 0 mm 0 mps 711 mmHg 96%
01:00 +11°C° 0 mm 0 mps 711 mmHg 96%
02:00 +11°C° 0 mm 0 mps 711 mmHg 96%
03:00 +10°C° 0 mm 0 mps 711 mmHg 96%
04:00 +10°C° 0 mm 0 mps 712 mmHg 97%
05:00 +11°C° 0 mm 0 mps 712 mmHg 93%
06:00 +13°C° 0 mm 0 mps 712 mmHg 90%
07:00 +14°C° 0 mm 0 mps 713 mmHg 87%
08:00 +17°C° 0 mm 0 mps 713 mmHg 75%
09:00 +19°C° 0 mm 0 mps 713 mmHg 64%
10:00 +23°C° 0 mm 1 mps 713 mmHg 52%
11:00 +24°C° 0 mm 1 mps 713 mmHg 49%
12:00 +25°C° 0 mm 1 mps 713 mmHg 46%
13:00 +26°C° 0 mm 1 mps 713 mmHg 43%
14:00 +26°C° 0 mm 1 mps 713 mmHg 44%
15:00 +26°C° 0 mm 1 mps 713 mmHg 44%
16:00 +26°C° 0 mm 1 mps 713 mmHg 45%
17:00 +23°C° 0 mm 1 mps 713 mmHg 53%
18:00 +21°C° 0 mm 1 mps 713 mmHg 62%
19:00 +19°C° 0 mm 1 mps 713 mmHg 71%
20:00 +17°C° 0 mm 2 mps 713 mmHg 72%
21:00 +17°C° 0 mm 2 mps 713 mmHg 72%
22:00 +16°C° 0 mm 2 mps 713 mmHg 73%
23:00 +16°C° 0 mm 2 mps 713 mmHg 73%

8 Agosto, Domingo

Tiempo Temperatura Precipitaciones Viento Presión Humedad
00:00 +16°C° 0 mm 2 mps 713 mmHg 72%
01:00 +16°C° 0 mm 2 mps 713 mmHg 72%
02:00 +15°C° 0 mm 2 mps 713 mmHg 72%
03:00 +15°C° 0 mm 2 mps 713 mmHg 73%
04:00 +15°C° 0 mm 2 mps 713 mmHg 73%
05:00 +17°C° 0 mm 2 mps 713 mmHg 69%
06:00 +18°C° 0 mm 2 mps 713 mmHg 64%
07:00 +20°C° 0 mm 2 mps 714 mmHg 60%
08:00 +22°C° 0 mm 3 mps 714 mmHg 54%
09:00 +23°C° 0 mm 4 mps 714 mmHg 48%
10:00 +26°C° 0 mm 5 mps 714 mmHg 43%
11:00 +27°C° 0 mm 4 mps 714 mmHg 40%
12:00 +28°C° 0 mm 4 mps 715 mmHg 38%
13:00 +29°C° 0 mm 4 mps 715 mmHg 35%
14:00 +28°C° 0 mm 4 mps 715 mmHg 43%
15:00 +27°C° 0 mm 4 mps 715 mmHg 50%
16:00 +25°C° 0 mm 4 mps 716 mmHg 58%
17:00 +22°C° 0 mm 3 mps 716 mmHg 66%
18:00 +20°C° 0 mm 3 mps 716 mmHg 75%
19:00 +18°C° 0 mm 2 mps 716 mmHg 83%
20:00 +17°C° 0 mm 2 mps 717 mmHg 86%
21:00 +18°C° 0 mm 1 mps 717 mmHg 88%
22:00 +16°C° 0 mm 1 mps 717 mmHg 91%
23:00 +15°C° 0 mm 1 mps 717 mmHg 91%

9 Agosto, Lunes

Tiempo Temperatura Precipitaciones Viento Presión Humedad
00:00 +15°C° 0 mm 1 mps 717 mmHg 92%
01:00 +15°C° 0 mm 1 mps 717 mmHg 93%
02:00 +15°C° 0 mm 1 mps 717 mmHg 93%
03:00 +14°C° 0 mm 1 mps 717 mmHg 94%
04:00 +14°C° 0 mm 1 mps 717 mmHg 94%
05:00 +16°C° 0 mm 1 mps 718 mmHg 86%
06:00 +18°C° 0 mm 1 mps 718 mmHg 79%
07:00 +20°C° 0 mm 1 mps 718 mmHg 71%
08:00 +21°C° 0 mm 2 mps 718 mmHg 62%
09:00 +24°C° 0 mm 2 mps 719 mmHg 54%
10:00 +26°C° 0 mm 3 mps 719 mmHg 45%
11:00 +26°C° 0 mm 3 mps 719 mmHg 43%
12:00 +27°C° 0 mm 3 mps 719 mmHg 41%
13:00 +28°C° 0 mm 3 mps 718 mmHg 38%
14:00 +28°C° 0 mm 3 mps 718 mmHg 40%
15:00 +28°C° 0 mm 3 mps 718 mmHg 42%
16:00 +27°C° 0 mm 3 mps 718 mmHg 43%
17:00 +25°C° 0 mm 3 mps 718 mmHg 53%
18:00 +23°C° 0 mm 2 mps 717 mmHg 64%
19:00 +20°C° 0 mm 2 mps 717 mmHg 74%
20:00 +19°C° 0 mm 2 mps 717 mmHg 78%
21:00 +18°C° 0 mm 2 mps 717 mmHg 81%
22:00 +18°C° 0 mm 1 mps 717 mmHg 85%
23:00 +18°C° 0 mm 1 mps 717 mmHg 85%
Mostrar más

Necesitamos Su Consentimiento

Meteoprog y nuestros Proveedores de Servicios pueden almacenar y acceder a sus datos personales como cookies, identificadores de dispositivo u otras tecnologías similares de su dispositivo y procesar dichos datos para personalizar contenido y anuncios, además de ofrecer funciones de redes sociales y analizar el tráfico.

  • Almacenar y/o acceder a información en su dispositivo

    Se puede almacenar o acceder a cookies, identificadores de dispositivo u otra información de su dispositivo para los fines anteriormente indicados.

  • Anuncios y contenido personalizados, medición de anuncios y contenido, percepciones del público, y desarrollo de productos

    Los anuncios y el contenido pueden personalizarse en base a su perfil. Se pueden añadir más datos para personalizar mejor los anuncios y contenidos. Se puede medir el rendimiento de los anuncios y contenidos. Se puede obtener la percepción sobre el público que ha visto los anuncios y contenidos. Dichos datos pueden usarse para desarrollar o mejorar la experiencia del usuario, sistemas y software.

Al hacer clic en ‘Estoy De Acuerdo’ usted permitirá el uso de las cookies, identificadores de dispositivo, balizas web u otras tecnologías similares indicadas. Su configuración puede cambiarse desde el navegador de su dispositivo.

Para ciertos fines, los intereses legítimos pueden ser considerados por encima del consentimiento. Puede leer más sobre ello en nuestra Política de Privacidad y Cookies.